Regional Weather Roundup
Issued by NWS

Home | Current Version | Previous Version | Graphics & Text | Print | Product List | Glossary On
Versions: 1 2 3 4 5 6 7 8 9 10 11 12 13 14 15 16 17 18 19 20 21 22 23 24 25 26 27 28 29 30 31 32 33 34 35 36 37 38 39 40 41 42 43 44 45 46 47 48 49 50
000
ASUS43 KMKX 200911
RWRWI

WISCONSIN REGIONAL WEATHER ROUNDUP
NATIONAL WEATHER SERVICE MILWAUKEE/SULLIVAN WI
400 AM CDT SUN APR 20 2014

NOTE: "FAIR" INDICATES FEW OR NO CLOUDS BELOW 12,000 FEET WITH NO
SIGNIFICANT WEATHER AND/OR OBSTRUCTIONS TO VISIBILITY.

WIZ001-002-006>008-014>016-023>028-201000-
NORTHWEST WISCONSIN

CITY           SKY/WX    TMP DP  RH WIND       PRES   REMARKS
SUPERIOR ARPT  CLEAR     26  26  99 NW3       30.04R FOG
ASHLAND        PTCLDY    37  37 100 W3        30.02S FOG
HAYWARD        MOCLDY    36  34  92 CALM      30.03R
SIREN          PTCLDY    33  32  98 CALM      30.02F
RICE LAKE      CLOUDY    48  46  95 SE3       30.04S FOG
LADYSMITH      LGT RAIN  49  47  91 CALM      30.05S
EAU CLAIRE     CLOUDY    53  45  74 W3        30.02F
MENOMONIE      CLOUDY    51  46  84 CALM      30.03S
NEW RICHMOND   CLOUDY    51  51 100 S3        30.02S FOG
OSCEOLA        FOG       47  47 100 CALM      30.04S VSB 1/4
$$

WIZ003>005-009-010-017-018-201000-
NORTH CENTRAL WISCONSIN

CITY           SKY/WX    TMP DP  RH WIND       PRES   REMARKS
WOODRUFF       CLOUDY    47  38  71 S8        30.04S
RHINELANDER    LGT RAIN  47  37  68 S6        30.07S
EAGLE RIVER    CLOUDY    42  38  86 SE5       30.05S
LAND O LAKES   CLOUDY    46  37  70 S3        30.06S
PHILLIPS       CLOUDY    47  43  84 S5        30.03S
TOMAHAWK       CLOUDY    42  40  93 CALM      30.06F
MEDFORD        CLOUDY    48  42  81 CALM      30.06S
MERRILL        LGT RAIN  52  41  65 S5G66     30.08R
$$

WIZ029-030-035-036-043>047-201000-
CENTRAL WISCONSIN

CITY           SKY/WX    TMP DP  RH WIND       PRES   REMARKS
WAUSAU         CLOUDY    50  41  71 S7        30.06F
MOSINEE        CLOUDY    50  41  71 SE8       30.09F
MARSHFIELD     CLOUDY    57  38  48 S7        30.07R
STEVENS POINT  CLOUDY    53  37  54 S7        30.10S
WAUPACA        CLOUDY    55  37  50 S7        30.11F
WAUTOMA        CLOUDY    56  38  50 S8        30.12S
WISC RAPIDS    CLOUDY    56  36  47 S7        30.09S
CAMP DOUGLAS   CLOUDY    60  37  41 S8        30.08R
$$

WIZ011>013-019>022-031-037>040-048>050-201000-
NORTHEAST WISCONSIN

CITY           SKY/WX    TMP DP  RH WIND       PRES   REMARKS
ANTIGO         CLOUDY    43  40  89 SE12      30.09F
STURGEON BAY   CLOUDY    46  34  61 S13       30.17F
GREEN BAY      CLOUDY    51  39  63 S8        30.14S
MANITOWOC      CLOUDY    45  34  65 S17       30.18S
APPLETON       CLOUDY    52  36  54 S12       30.14S
CLINTONVILLE   DRIZZLE   52  39  62 S5        30.12F
OSHKOSH        LGT RAIN  54  37  52 S18G29    30.13R
$$

WIZ032>034-041-042-053>061-201000-
SOUTHWEST WISCONSIN

CITY           SKY/WX    TMP DP  RH WIND       PRES   REMARKS
LA CROSSE      CLOUDY    62  38  40 S12       30.05S
SPARTA         CLOUDY    63  33  33 S7        30.08R
VIROQUA        FAIR      58  37  46 S9        30.08S
BOSCOBEL       CLOUDY    63  38  39 SW7       30.10S
PRAIRIE DU CHI CLOUDY    63  37  38 S7        30.09R
PLATTEVILLE    MOCLDY    55  38  54 SE6       30.14S
$$

WIZ056-057-062-063-064-067-068-201000-
SOUTH CENTRAL WISCONSIN

CITY           SKY/WX    TMP DP  RH WIND       PRES   REMARKS
BARABOO/DELLS  CLOUDY    55  36  48 S9        30.11S
LONE ROCK      MOCLDY    58  37  45 SE5       30.11F
WATERTOWN      PTCLDY    51  38  62 S7        30.16S
MADISON        MOCLDY    54  38  54 S10       30.14F
MIDDLETON      PTSUNNY   55  36  48 S10       30.13F
MONROE         PTCLDY    52  38  58 S14       30.15S
JANESVILLE     PTCLDY    54  36  50 S12       30.16F
$$

WIZ051-052-058>065-066-070>072-201000-
SOUTHEAST WISCONSIN

CITY           SKY/WX    TMP DP  RH WIND       PRES   REMARKS
MILWAUKEE      PTCLDY    48  31  51 S9        30.20F
WAUKESHA       CLEAR     45  34  65 S9        30.19F
MILWAUKEE/TIMM PTCLDY    46  32  57 S7        30.19F
RACINE         CLEAR     46  32  58 S15       30.21F
BURLINGTON     CLEAR     37  34  92 CALM      30.19F
KENOSHA        CLEAR     45  34  65 S10       30.20F
FOND DU LAC    CLOUDY    54  37  52 S15       30.13F
SHEBOYGAN      MOCLDY    46  34  62 S13       30.17F
WEST BEND      CLOUDY    45  32  61 S5        30.17F
JUNEAU         MOCLDY    50  34  53 S10       30.16F
$$

LSZ147-162-201000-
LAKE SUPERIOR

STATION/POSITION TIME  TEMP    WIND        PRES    WAVE
                       AIR SEA DIR/SP/G            HT/PER
                 (UTC) (F)     (DEG/KT/KT) (MB)    (FT/S)
DEVILS ISLAND    0900   32     250/  8/ 10 1017.6R
PORT WING        0800   28     180/  2/  3 1016.9R
SAXON HARBOR     0840             CALM     1015.9S
$$

LMZ867-665-643>646-201000-
LAKE MICHIGAN

STATION/POSITION TIME  TEMP    WIND        PRES    WAVE
                       AIR SEA DIR/SP/G            HT/PER
                 (UTC) (F)     (DEG/KT/KT) (MB)    (FT/S)
NORTHPORT PIER   0800   36     140/  8/ 11 1022.0F
SISTER BAY       0809   41     190/ 18/ 22   N/A
KEWAUNEE LAKESHO 0800   45     180/ 17/ 21 1022.3F
SHEBOYGAN LAKESH 0900   40     170/ 17/ 18 1022.6F
PORT WASHINGTON  0840   42     180/  6/  9 1023.0F
MILWAUKEE LAKESH 0800   46     160/ 13/ 14   N/A
KENOSHA   LAKESH 0900   44     170/ 15/ 18   N/A
$$

TC  - TEMPERATURE IN CELSIUS
VSB - VISIBILITY IN STATUTE MILES
WCI - WIND CHILL INDEX
HX  - HEAT INDEX




USA.gov is the U.S. government's official web portal to all federal, state and local government web resources and services.